EN

Hourly Weather Godziejewo

Today, 9 May, Sunday

Time Temperature Precipitation Wind Pressure Humidity
00:00 +2°C° 0 mm 2 mps 748 mmHg 94%
01:00 +1°C° 0 mm 2 mps 748 mmHg 94%
02:00 +2°C° 0 mm 1 mps 748 mmHg 93%
03:00 +2°C° 0 mm 1 mps 748 mmHg 93%
04:00 +1°C° 0 mm 1 mps 749 mmHg 93%
05:00 -1°C° 0 mm 2 mps 749 mmHg 93%
06:00 +2°C° 0 mm 2 mps 749 mmHg 88%
07:00 +4°C° 0 mm 2 mps 749 mmHg 84%
08:00 +5°C° 0 mm 3 mps 749 mmHg 80%
09:00 +7°C° 0 mm 3 mps 749 mmHg 71%
10:00 +8°C° 0 mm 4 mps 749 mmHg 63%
11:00 +11°C° 0 mm 4 mps 749 mmHg 54%
12:00 +12°C° 0 mm 5 mps 749 mmHg 53%
13:00 +12°C° 0 mm 5 mps 749 mmHg 52%
14:00 +13°C° 0 mm 6 mps 748 mmHg 51%
15:00 +12°C° 0 mm 5 mps 748 mmHg 57%
16:00 +12°C° 0 mm 5 mps 748 mmHg 63%
17:00 +11°C° 0 mm 4 mps 747 mmHg 70%
18:00 +11°C° 0 mm 4 mps 747 mmHg 71%
19:00 +11°C° 0 mm 4 mps 747 mmHg 72%
20:00 +10°C° 0 mm 5 mps 747 mmHg 73%
21:00 +9°C° 0 mm 5 mps 748 mmHg 75%
22:00 +9°C° 0 mm 5 mps 748 mmHg 76%
23:00 +8°C° 0 mm 5 mps 748 mmHg 78%

Tomorrow, 10 May, Monday

Time Temperature Precipitation Wind Pressure Humidity
00:00 +8°C° 0 mm 4 mps 748 mmHg 79%
01:00 +8°C° 0 mm 4 mps 748 mmHg 81%
02:00 +7°C° 0 mm 4 mps 748 mmHg 82%
03:00 +7°C° 0 mm 4 mps 748 mmHg 84%
04:00 +6°C° 0 mm 4 mps 748 mmHg 86%
05:00 +6°C° 0 mm 4 mps 748 mmHg 88%
06:00 +8°C° 0 mm 5 mps 748 mmHg 83%
07:00 +9°C° 0 mm 5 mps 748 mmHg 78%
08:00 +11°C° 0 mm 6 mps 748 mmHg 73%
09:00 +14°C° 0 mm 6 mps 748 mmHg 68%
10:00 +15°C° 0 mm 7 mps 748 mmHg 64%
11:00 +17°C° 0 mm 7 mps 748 mmHg 59%
12:00 +18°C° 0 mm 7 mps 748 mmHg 58%
13:00 +18°C° 0 mm 7 mps 748 mmHg 57%
14:00 +20°C° 0 mm 7 mps 748 mmHg 55%
15:00 +20°C° 0 mm 7 mps 748 mmHg 58%
16:00 +20°C° 0 mm 7 mps 748 mmHg 60%
17:00 +20°C° 0 mm 7 mps 748 mmHg 62%
18:00 +17°C° 0 mm 6 mps 748 mmHg 66%
19:00 +16°C° 0 mm 6 mps 748 mmHg 70%
20:00 +15°C° 0 mm 5 mps 748 mmHg 74%
21:00 +14°C° 0 mm 6 mps 748 mmHg 75%
22:00 +13°C° 0 mm 6 mps 748 mmHg 77%
23:00 +13°C° 0 mm 6 mps 748 mmHg 78%

Day after tomorrow, 11 May, Tuesday

Time Temperature Precipitation Wind Pressure Humidity
00:00 +12°C° 0 mm 5 mps 748 mmHg 79%
01:00 +12°C° 0 mm 5 mps 748 mmHg 80%
02:00 +10°C° 0 mm 5 mps 748 mmHg 81%
03:00 +10°C° 0 mm 5 mps 748 mmHg 82%
04:00 +9°C° 0 mm 5 mps 748 mmHg 83%
05:00 +9°C° 0 mm 5 mps 748 mmHg 83%
06:00 +10°C° 0 mm 6 mps 748 mmHg 80%
07:00 +11°C° 0 mm 6 mps 748 mmHg 76%
08:00 +12°C° 0 mm 7 mps 748 mmHg 73%
09:00 +15°C° 0 mm 7 mps 748 mmHg 68%
10:00 +16°C° 0 mm 8 mps 748 mmHg 64%
11:00 +18°C° 0 mm 8 mps 748 mmHg 59%
12:00 +20°C° 0 mm 8 mps 748 mmHg 58%
13:00 +20°C° 0 mm 8 mps 748 mmHg 57%
14:00 +21°C° 0 mm 8 mps 747 mmHg 56%
15:00 +20°C° 0 mm 8 mps 747 mmHg 57%
16:00 +20°C° 0 mm 7 mps 747 mmHg 58%
17:00 +18°C° 0 mm 7 mps 747 mmHg 60%
18:00 +17°C° 0 mm 7 mps 747 mmHg 62%
19:00 +15°C° 0 mm 6 mps 747 mmHg 64%
20:00 +14°C° 0 mm 6 mps 747 mmHg 67%
21:00 +13°C° 0 mm 6 mps 747 mmHg 68%
22:00 +11°C° 0 mm 6 mps 747 mmHg 69%
23:00 +10°C° 0 mm 5 mps 747 mmHg 70%

12 May, Wednesday

Time Temperature Precipitation Wind Pressure Humidity
00:00 +10°C° 0 mm 5 mps 747 mmHg 72%
01:00 +10°C° 0 mm 5 mps 747 mmHg 75%
02:00 +10°C° 0 mm 5 mps 746 mmHg 78%
03:00 +10°C° 0 mm 5 mps 746 mmHg 82%
04:00 +9°C° 0 mm 5 mps 746 mmHg 85%
05:00 +9°C° 0 mm 5 mps 746 mmHg 89%
06:00 +10°C° 0 mm 5 mps 746 mmHg 86%
07:00 +13°C° 0 mm 6 mps 746 mmHg 82%
08:00 +15°C° 0 mm 6 mps 746 mmHg 79%
09:00 +16°C° 0 mm 6 mps 746 mmHg 71%
10:00 +17°C° 0 mm 7 mps 745 mmHg 63%
11:00 +18°C° 0 mm 7 mps 745 mmHg 54%
12:00 +18°C° 0 mm 7 mps 745 mmHg 53%
13:00 +20°C° 0 mm 7 mps 745 mmHg 52%
14:00 +20°C° 0 mm 7 mps 744 mmHg 50%
15:00 +20°C° 0 mm 6 mps 744 mmHg 55%
16:00 +19°C° 0 mm 5 mps 744 mmHg 60%
17:00 +19°C° 0 mm 4 mps 743 mmHg 65%
18:00 +16°C° 0 mm 5 mps 743 mmHg 68%
19:00 +14°C° 0 mm 5 mps 743 mmHg 70%
20:00 +12°C° 0 mm 5 mps 743 mmHg 72%
21:00 +10°C° 0 mm 5 mps 743 mmHg 77%
22:00 +8°C° 0 mm 4 mps 743 mmHg 83%
23:00 +7°C° 0 mm 4 mps 743 mmHg 88%

13 May, Thursday

Time Temperature Precipitation Wind Pressure Humidity
00:00 +8°C° 0 mm 3 mps 743 mmHg 90%
01:00 +7°C° 0 mm 3 mps 743 mmHg 92%
02:00 +7°C° 0 mm 3 mps 743 mmHg 94%
03:00 +7°C° 0 mm 3 mps 742 mmHg 95%
04:00 +7°C° 0 mm 3 mps 742 mmHg 95%
05:00 +7°C° 0 mm 3 mps 741 mmHg 95%
06:00 +7°C° 0 mm 4 mps 741 mmHg 90%
07:00 +8°C° 0 mm 4 mps 741 mmHg 85%
08:00 +10°C° 0 mm 4 mps 741 mmHg 80%
09:00 +11°C° 0 mm 4 mps 740 mmHg 77%
10:00 +11°C° 0 mm 3 mps 740 mmHg 74%
11:00 +12°C° 0 mm 3 mps 740 mmHg 71%
12:00 +13°C° 0.1 mm 3 mps 740 mmHg 68%
13:00 +13°C° 0.1 mm 3 mps 739 mmHg 65%
14:00 +14°C° 0.1 mm 3 mps 739 mmHg 62%
15:00 +14°C° 0.1 mm 3 mps 739 mmHg 63%
16:00 +14°C° 0.1 mm 3 mps 739 mmHg 63%
17:00 +14°C° 0.1 mm 4 mps 739 mmHg 64%
18:00 +13°C° 0 mm 3 mps 739 mmHg 68%
19:00 +13°C° 0 mm 2 mps 739 mmHg 72%
20:00 +12°C° 0 mm 2 mps 739 mmHg 77%
21:00 +10°C° 0 mm 2 mps 739 mmHg 79%
22:00 +10°C° 0 mm 2 mps 739 mmHg 81%
23:00 +10°C° 0 mm 2 mps 739 mmHg 83%

14 May, Friday

Time Temperature Precipitation Wind Pressure Humidity
00:00 +10°C° 0 mm 2 mps 739 mmHg 86%
01:00 +10°C° 0 mm 2 mps 739 mmHg 89%
02:00 +9°C° 0 mm 2 mps 738 mmHg 91%
03:00 +9°C° 0 mm 2 mps 738 mmHg 92%
04:00 +10°C° 0 mm 1 mps 738 mmHg 93%
05:00 +10°C° 0 mm 1 mps 738 mmHg 94%
06:00 +10°C° 0 mm 2 mps 738 mmHg 92%
07:00 +10°C° 0 mm 2 mps 738 mmHg 91%
08:00 +12°C° 0 mm 2 mps 738 mmHg 89%
09:00 +12°C° 0.2 mm 2 mps 738 mmHg 87%
10:00 +13°C° 0.2 mm 2 mps 738 mmHg 86%
11:00 +13°C° 0.2 mm 2 mps 738 mmHg 84%
12:00 +13°C° 0.5 mm 1 mps 739 mmHg 85%
13:00 +13°C° 0.5 mm 1 mps 739 mmHg 86%
14:00 +12°C° 0.5 mm 0 mps 739 mmHg 87%
15:00 +14°C° 0.2 mm 1 mps 739 mmHg 85%
16:00 +14°C° 0.2 mm 1 mps 739 mmHg 83%
17:00 +15°C° 0.2 mm 1 mps 739 mmHg 81%
18:00 +14°C° 0.2 mm 2 mps 739 mmHg 85%
19:00 +13°C° 0.2 mm 2 mps 739 mmHg 89%
20:00 +12°C° 0.2 mm 2 mps 740 mmHg 93%
21:00 +9°C° 0 mm 2 mps 740 mmHg 93%
22:00 +8°C° 0 mm 2 mps 740 mmHg 94%
23:00 +7°C° 0 mm 2 mps 740 mmHg 94%
Show more